Groton, South Dakota, United States (57445)
Lat: 45.45N, Lon: 98.1W
Wx Zone: SDZ006
Local Info
Past Weather Observations for Monday, March 2, 2015

NOTE: This archive is for the closest National Weather Service station to Groton. Information may differ from the station used for current weather conditions.

Click here for Long-term Archive

Time Weather Temperature Dewpoint Humidity Pressure Winds Precip Visibility
23:53
Mostly Cloudy
30°F / -1°C 21°F / -6°C 69% 29.74 in
(1007 mb)
S 17.3 mph
(S 28 kph)
- 10SM
22:53
Clear
30°F / -1°C 21°F / -6°C 69% 29.77 in
(1008 mb)
S 19.6 mph
(S 32 kph)
- 10SM
21:53
Clear
28°F / -2°C 19°F / -7°C 69% 29.8 in
(1009 mb)
S 21.9 mph
(S 35 kph)
- 10SM
20:53
Clear
28°F / -2°C 19°F / -7°C 69% 29.83 in
(1010 mb)
S 21.9 mph
(S 35 kph)
- 10SM
19:53
Clear
28°F / -2°C 19°F / -7°C 69% 29.86 in
(1011 mb)
S 23 mph
(S 37 kph)
- 10SM
18:53
Clear
28°F / -2°C 18°F / -8°C 64% 29.89 in
(1012 mb)
SSE 23 mph
(SSE 37 kph)
- 10SM
17:53
Clear
30°F / -1°C 19°F / -7°C 64% 29.89 in
(1012 mb)
SSE 25.3 mph
(SSE 41 kph)
- 10SM
16:53
Clear
34°F / 1°C 19°F / -7°C 56% 29.95 in
(1014 mb)
S 26.5 mph
(S 43 kph)
- 10SM
15:53
Clear
36°F / 2°C 19°F / -7°C 52% 29.98 in
(1015 mb)
S 27.6 mph
(S 44 kph)
- 10SM
14:53
Mostly Cloudy
34°F / 1°C 19°F / -7°C 56% 30.01 in
(1016 mb)
SSE 29.9 mph
(SSE 48 kph)
- 10SM
13:53
Clear
32°F / 0°C 19°F / -7°C 60% 30.06 in
(1018 mb)
SSE 31.1 mph
(SSE 50 kph)
- 10SM
12:53
Mostly Cloudy
30°F / -1°C 18°F / -8°C 59% 30.12 in
(1020 mb)
S 25.3 mph
(S 41 kph)
- 10SM
11:53
Clear
28°F / -2°C 16°F / -9°C 59% 30.18 in
(1022 mb)
S 26.5 mph
(S 43 kph)
- 10SM
10:53
Clear
25°F / -4°C 12°F / -11°C 59% 30.24 in
(1024 mb)
S 25.3 mph
(S 41 kph)
- 10SM
09:53
Clear
19°F / -7°C 12°F / -11°C 73% 30.3 in
(1026 mb)
S 19.6 mph
(S 32 kph)
- 10SM
08:53
Clear
16°F / -9°C 9°F / -13°C 73% 30.33 in
(1027 mb)
S 13.8 mph
(S 22 kph)
- 10SM
08:09
Partly Cloudy
Hazy
9°F / -13°C 1°F / -17°C 72% 30.33 in
(1027 mb)
SSE 5.8 mph
(SSE 9 kph)
- 6SM
08:00
Mostly Cloudy
Hazy
7°F / -14°C 1°F / -17°C 78% 30.33 in
(1027 mb)
S 6.9 mph
(S 11 kph)
- 5SM
07:53
Mostly Cloudy
Hazy
7°F / -14°C 1°F / -17°C 78% 30.36 in
(1028 mb)
S 6.9 mph
(S 11 kph)
- 2 1/2SM
07:50
Overcast
Hazy
7°F / -14°C 1°F / -17°C 78% 30.36 in
(1028 mb)
S 6.9 mph
(S 11 kph)
- 1 1/2SM
07:45
Overcast
Hazy
7°F / -14°C 1°F / -17°C 78% 30.36 in
(1028 mb)
S 6.9 mph
(S 11 kph)
- 3/4SM
07:27
Overcast
Hazy
3°F / -16°C °F / -18°C 85% 30.36 in
(1028 mb)
S 4.6 mph
(S 7 kph)
- 1SM
06:53
Obscured
Hazy
3°F / -16°C -2°F / -19°C 78% 30.36 in
(1028 mb)
SSE 4.6 mph
(SSE 7 kph)
- 1/2SM
06:00
Obscured
Hazy
3°F / -16°C °F / -18°C 85% 30.36 in
(1028 mb)
S 4.6 mph
(S 7 kph)
- 3/4SM
05:53
Obscured
Hazy
3°F / -16°C °F / -18°C 85% 30.39 in
(1029 mb)
SSE 4.6 mph
(SSE 7 kph)
- 1SM
05:37
Obscured
Fog
3°F / -16°C °F / -18°C 85% 30.39 in
(1029 mb)
S 4.6 mph
(S 7 kph)
- 1/2SM
05:10
Obscured
Fog
1°F / -17°C °F / -18°C 92% 30.39 in
(1029 mb)
SSE 4.6 mph
(SSE 7 kph)
- 1/4SM
04:59
Obscured
Fog And Mist
1°F / -17°C -2°F / -19°C 85% 30.39 in
(1029 mb)
SSE 4.6 mph
(SSE 7 kph)
- 3/4SM
04:56
Overcast
Fog And Mist
1°F / -17°C -2°F / -19°C 85% 30.39 in
(1029 mb)
SSE 5.8 mph
(SSE 9 kph)
- 1 3/4SM
04:53
Overcast
Hazy
1°F / -17°C -4°F / -20°C 78% 30.39 in
(1029 mb)
SSE 4.6 mph
(SSE 7 kph)
- 4SM
04:42
Mostly Cloudy
°F / -18°C -2°F / -19°C 92% 30.39 in
(1029 mb)
S 4.6 mph
(S 7 kph)
- 10SM
04:33
Partly Cloudy
°F / -18°C -6°F / -21°C 78% 30.39 in
(1029 mb)
S 5.8 mph
(S 9 kph)
- 10SM
03:53
Clear
-2°F / -19°C -6°F / -21°C 84% 30.39 in
(1029 mb)
S 4.6 mph
(S 7 kph)
- 10SM
02:53
Clear
°F / -18°C -6°F / -21°C 78% 30.42 in
(1030 mb)
S 3.5 mph
(S 6 kph)
- 10SM
01:53
Clear
1°F / -17°C -2°F / -19°C 85% 30.42 in
(1030 mb)
Calm - 10SM
00:53
Clear
1°F / -17°C -4°F / -20°C 78% 30.42 in
(1030 mb)
SW 6.9 mph
(SW 11 kph)
- 10SM
Time Weather Temperature Dewpoint Humidity Pressure Winds Precip Visibility


Weather for websites

WeatherForYou.com, LLC is not responsible for any damages or problems caused by this service. Current weather conditions are obtained from the closest station including government and personal stations which may have varying degrees of accuracy. Weather forecasts are derived from the NOAA NDFD. Like all things, this site belongs to Jesus Christ... He just trusts me to maintain it. If you have any questions or comments email webmaster@weatherforyou.com

Copyright © 2015, WeatherForYou.com LLC. All rights reserved.